sat.trackr.live / text

‹ back to catalog

STARLINK-30135

NORAD 56842 · 2023-079V

PAYLOAD ACTIVE UNKNOWN

§ Identity

Operator
Country
US
Launch date
2023-06-04
Launch site
AFETR
Launch vehicle
Mass (kg)
RCS (m²)

Purposes: comms

External: N2YO · Heavens-Above · Gunter

§ Orbital elements

Epoch: 2026-09-20T22:00:36.933696Z

Period
94.27 min
Inclination
43.0018°
Eccentricity
0.0001139
Mean motion
15.27579100 rev/d
Perigee alt
482.3 km
Apogee alt
483.8 km
Semi-major
6,861.2 km
B*
2.8903e-5
RAAN
84.5919°
Arg perigee
254.4525°
Mean anomaly
105.6201°
Rev number
18,274

§ Raw data

STARLINK-301351 56842U 23079V   26263.91709414  .00000533  00000+0  28903-4 0  99962 56842  43.0018  84.5919 0001139 254.4525 105.6201 15.27579100182744

JSON: /api/v1/satellites/56842 · /tle

For live sub-satellite position, see the globe view (requires WebGL).

§ Visibility from observer

Set your observer location to see the next 7 days of passes ≥ 10°. The values pass through the URL so the page stays shareable.

No JS? Fill the form by hand. The geolocation button needs JavaScript.